Regional Weather Roundup
Issued by NWS

Home | Current Version | Previous Version | Graphics & Text | Print | Product List | Glossary On
Versions: 1 2 3 4 5 6 7 8 9 10 11 12 13 14 15 16 17 18 19 20 21 22 23 24 25 26 27 28 29 30 31 32 33 34 35 36 37 38 39 40 41 42 43 44 45 46 47 48 49 50
000
ASUS43 KIND 162009
RWRIN

WEATHER ROUNDUP FOR INDIANA
NATIONAL WEATHER SERVICE INDIANAPOLIS IN
300 PM EST MON JAN 16 2017

NOTE: "FAIR" INDICATES FEW OR NO CLOUDS BELOW 12,000 FEET WITH NO
SIGNIFICANT WEATHER AND/OR OBSTRUCTIONS TO VISIBILITY.

* - STATION DOES NOT REPORT WEATHER SUCH AS PRECIPITATION OR FOG.

+ - STATION NOT QUALITY CONTROLLED BY THE NATIONAL WEATHER SERVICE.
    USE DATA WITH CAUTION...ESPECIALLY DEWPOINT AND RELATIVE
    HUMIDITY OBSERVATIONS.

INZ001>003-010>013-019-020-162100-
NORTHWEST INDIANA

CITY           SKY/WX    TMP DP  RH WIND       PRES   REMARKS
GARY /AIRPORT/ LGT RAIN  37  36  93 E6        30.11F VSB 1/2
KNOX *+        CLOUDY    36  32  87 E8        30.12F VSB 1/2
LA PORTE +     LGT RAIN  35  35 100 E8        30.12F VSB 1/2 WCI  28
MICHIGAN CITY+ RAIN      36  36 100 SE5       30.12F
MONTICELLO +   FOG       37  36  94 E7        30.11F VSB 1/2
RENSSELAER +   FOG       37  37 100 E10       30.09F VSB 1/4
VALPARAISO     LGT RAIN  37  36  96 E8        30.10F VSB 1/4

$$

LMZ046-743>745-162100-
SOUTHERN LAKE MICHIGAN

STATION/POSITION TIME  TEMP    WIND        PRES    WAVE
                       AIR SEA DIR/SP/G            HT
                 (UTC) (F)     (DEG/KT/KT) (MB)    (FT)
BURNS HARBOR     1940   36     140/  4/  7 1020.7F
MICHIGAN CITY    1940   36      90/  5/  7   N/A

$$

INZ004-005-014>016-021>024-162100-
NORTH CENTRAL INDIANA

CITY           SKY/WX    TMP DP  RH WIND       PRES   REMARKS
ELKHART        FOG       36  36 100 E6        30.14F VSB 1/2
GOSHEN         FOG       36  33  89 E8        30.14F VSB 1/4
LOGANSPORT +   FOG       37  36  93 E8        30.13F VSB 1/2
PERU/GRISSOM   FOG       38  38 100 E7        30.11F VSB 3/4
ROCHESTER +    FOG       37  37 100 E8        30.13F VSB 1/2
SOUTH BEND     LGT RAIN  35  34  96 SE8       30.14F VSB 1/2 WCI  29
WARSAW +       HAZE      34  30  86 SE7       30.14F VSB 1/2 WCI  28

$$

INZ006>009-017-018-025>027-162100-
NORTHEAST INDIANA

CITY           SKY/WX    TMP DP  RH WIND       PRES   REMARKS
ANGOLA *+      CLOUDY    32  32 100 SE6       30.16F VSB 3/4 WCI  26
AUBURN +       FOG       34  32  93 E7        30.17F VSB 1/2 WCI  28
FORT WAYNE     DRZL/FOG  35  34  96 E8        30.18F VSB 1/4 WCI  29
HUNTINGTON +   FOG       35  34  96 E6        30.16F VSB 1/2 WCI  30
KENDALLVILLE + FOG       33  33 100 SE8       30.16F VSB 1/4 WCI  26

$$

INZ028-029-035-036-043>045-051>053-162100-
WEST CENTRAL INDIANA

CITY           SKY/WX    TMP DP  RH WIND       PRES   REMARKS
CRAWFORDSVL +  CLOUDY    44  44 100 SE8       30.09F FOG
GREENCASTLE +  CLOUDY    46  46 100 S8        30.11S FOG
LAFAYETTE      FOG       42  42 100 E10       30.08F VSB 1
TERRE HAUTE    CLOUDY    49  47  93 SE8       30.09F

$$

INZ030>032-037>040-046>048-054>057-064-065-162100-
CENTRAL INDIANA

CITY           SKY/WX    TMP DP  RH WIND       PRES   REMARKS
CP ATTERBURY + CLOUDY    46  45  93 SE7       30.13F FOG
COLUMBUS       CLOUDY    48  48 100 SE5       30.14F FOG
FISHERS *+     CLOUDY    46  46 100 SE5       30.11F
FRANKFORT +    CLOUDY    45  44  96 SE10      30.11F FOG
GREENWOOD *+   CLOUDY    47  47 100 SE6       30.13F
INDIANAPOLIS   CLOUDY    47  44  90 SE8       30.11F FOG
-EAGLE CREEK   CLOUDY    47  43  86 SE7       30.11F FOG
KOKOMO +       CLOUDY    38  37  97 E8        30.13F FOG
MARION +       CLOUDY    41  39  93 E5        30.14F FOG
MT COMFORT *+  CLOUDY    46  45  93 SE7       30.11F
SHELBYVILLE    CLOUDY    50  46  86 SE6       30.12F
ZIONSVILLE +   CLOUDY    45  44  95 SE8       30.11F FOG

$$

INZ033-034-041-042-049-050-058-059-162100-
EAST CENTRAL INDIANA

CITY           SKY/WX    TMP DP  RH WIND       PRES   REMARKS
MUNCIE         CLOUDY    48  44  86 SE6       30.14F

$$

INZ060-061-067>069-081>083-085>088-162100-
SOUTHWEST INDIANA

CITY           SKY/WX    TMP DP  RH WIND       PRES   REMARKS
EVANSVILLE     LGT RAIN  54  51  90 E5        30.09F FOG
HUNTINGBURG *+ CLOUDY    54  52  94 SE5       30.11F
WASHINGTON +   DRIZZLE   54  52  94 SE10      30.08F

$$

INZ062-063-066-070>080-084-089>092-162100-
SOUTH CENTRAL AND SOUTHEAST INDIANA

CITY           SKY/WX    TMP DP  RH WIND       PRES   REMARKS
BLOOMINGTON    FOG       48  46  93 SE9       30.11F VSB 1
MADISON *+     PTSUNNY   50  46  87 E6        30.16F
NORTH VERNON + CLOUDY   N/A N/A N/A SE6       30.14F

$$




USA.gov is the U.S. government's official web portal to all federal, state and local government web resources and services.